CZ-4 DEB, 27492

Orbit data source: Space-Track

CZ-4 DEB, 27492 is space debris in SSO originally from a launch on Thu, 14 Oct 1999 UTC launched from the Taiyaun Space Center, China (TSC). Debris objects in space refer to the collection of defunct objects orbiting the Earth. Examples of debris include non-operational satellites, rocket bodies, and fragments generated from explosions, collisions, or faulty payload assembly.

Loading next visibility...
Identifier
27492, 1999-057MM
Orbit
SSO
Country
Flag of CNCN / PRC
Related business
Manufacturer
Unknown
Mission
Spacecraft
Bus & Motor
Unknown
Mass
Unknown
Launch date (UTC)
1999-10-14 (26 years ago)
Launch vehicle
Unknown
Launch site
Taiyaun Space Center, China (TSC)
Object type
Payload
Rocket body
Debris
Shape & HBR
Unknown shape, 0.1 m
Radar Cross Section
Small (<0.1 m²)

Expand to show TLE details & history
Last TLE update: 1 day ago

TLE from 1 day ago
0 CZ-4 DEB
1 27492U 99057MM  26036.08455836  .00005769  00000-0  11447-2 0  9996
2 27492  98.4057  91.9092 0078270  72.4264 288.5467 14.60652106304130
Epoch: 2026-02-05T02:01Z
TLE epoch observation values (Epoch: 2026-02-05T02:01:45.842Z)
Latitude
-0.00002°
Longitude
-73.77367°
Altitude
676.837 km
Speed
7.527 km/s
True Right ascension
06h 07m 38s
True Declination
0° 00' 00"
Sunlit
Object was in full shadow at epoch
Visualization orbit readout
Latitude
Unknown
Longitude
Unknown
Altitude
Unknown
Speed
Unknown
Apparent Right ascension
Unknown
Apparent Declination
Unknown
Sunlit
N/A
Visualization observer readout
Local Sidereal Time
09:08:05
Azimuth
Unknown
Elevation
Unknown
Doppler factor
Unknown
Orbital elements
Apogee altitude
743.467 km
Perigee altitude
632.851 km
Semi-major axis
7,066.296 km
Eccentricity
0.00783
Inclination
98.4057°
RAAN
91.9092°
Arg. of periapsis
72.4264°
True anomaly
287.69375°
Mean anomaly
288.5467°
Eccentric anomaly
288.12049°
Mean motion
3.65389 °/min
Orbital period
98.53 mins
BSTAR
0.0011447
Loading maneuver chart data...
Computing Atmospheric mass density...
Loading historical data...
Loading historical data...
Loading historical data...
Loading historical data...
Loading historical data...
Loading historical data...
Loading historical data...

Documentation

Showing up to 5 results
|